Starlink 11488

operational
NORAD ID: 62222 Int'l Des: 2024-231 Owner: SPXS Country: US Constellation: starlink
LEOCIRCULAR

Über Starlink 11488

Beschreibung wird geladen...

Live-Position

3D-Globus wird geladen...

Nächste Überflüge

Höhenverlauf

Altitude vs Time

uPlot chart will show altitude changes over time

Zweizeiliger Elementsatz

1 62222U 24231E 25352.91774744 .00099782 00000-0 81702-3 0 9992
2 62222 53.1566 139.5691 0001839 147.6012 212.5119 15.69755940 60725
Epoch: 18. Dez. 2025 • Age: 20 hours

Aktueller Status

Höhe 361.8 km
Geschwindigkeit 7.70 km/s
Subsatellitenpunkt 41.01°N, 89.91°W
Startdatum 5. Dez. 2024
Alter 1 years
Typ internet

Technische Details

Klassifizierung Payload
Masse 960.00 kg
Trockenmasse 910.00 kg
Gesamtmasse 960.00 kg
Länge 0.30 m
Durchmesser 4.10 m
Spannweite 29.00 m
Form Box + pan
Hersteller SPXS
Bus-Typ Starlink V2MD
Phasenstatus In Orbit
Besitzer/Staat SPXS/US

Große Konstellationen

Loading constellations...